Location: Plainartige
(45.6866°N, 1.7993°E)
Time: 03:40:57
(UTC+00:00)

DIWATA 2B (PO-101) - Pass Details

Date: 03 July 2022
Orbit: 583 x 599 km, 98.0° (Epoch: 13 August)

Event Time Altitude Azimuth Distance (km) Brightness Sun altitude
Exits shadow 01:56:41 28° 183° (S) 1,146 ? -16.2°
Maximum altitude 01:58:50 65° 259° (WSW) 660 ? -16.0°
Drops below altitude 10° 02:03:02 10° 341° (NNW) 1,949 ? -15.6°
Sets 02:05:14 0° 345° (NNW) 2,856 ? -15.4°
